CAPE
0 269 974 1442 1500 1271 1098 832 784 864 1102 1086 978 1243 1384 1597 1624 1863 2054 2014 1783 1473 1008 1040 1154 1127 1164 862 816 867 1127 1211 1285 1436 1415 1038 1064 976 743 670 874 816 1416
0 181 867 1309 1472 1335 1129 796 729 844 1142 1107 1100 1245 1329 1571 1591 1635 1898 1948 1702 1079 985 1068 1089 1077 1055 983 883 847 726 761 931 1197 1179 797 799 809 633 1536 1290 1215 1275
0 97 718 1103 1348 1339 1203 905 810 953 1192 1179 1080 1209 1349 1599 1671 1513 1537 1684 1558 1183 882 959 958 890 904 972 853 481 405 454 622 902 999 189 193 491 541 892 1177 928 811
0 25 443 903 1162 1305 1170 943 795 989 1265 1310 1084 1178 1309 1483 1605 1541 1452 1297 1429 1292 788 874 865 779 744 824 501 317 209 179 246 498 575 286 107 303 306 412 529 583 587
0 0 207 756 973 1177 1134 965 822 911 1086 1118 992 1133 1231 1383 1434 1551 1331 1182 1337 1324 799 837 805 905 901 466 290 231 238 298 328 465 554 442 210 301 263 334 397 520 564
0 0 191 582 814 1050 1142 1038 874 903 909 891 811 1038 1222 1324 1449 1462 1126 1081 1368 1465 1308 1007 1136 1000 644 356 381 487 378 333 261 404 378 430 384 622 415 625 340 397 460
0 0 20 323 669 952 1195 1132 894 852 809 794 768 871 1081 1285 1373 1221 948 953 1198 1403 1438 1452 1200 736 479 310 519 545 299 204 114 389 380 302 252 1271 647 745 825 598 488
0 0 0 176 463 788 1026 998 803 729 759 713 689 742 952 1104 1129 1064 829 813 984 1156 1185 1160 1103 734 403 222 219 303 233 133 67 288 301 193 304 1549 1272 1205 798 531 375
0 0 0 6 225 540 814 865 793 704 744 688 611 573 678 752 769 838 758 713 853 957 1007 982 854 775 467 237 189 164 150 75 8 0 150 108 1279 1797 1911 1234 713 491 469
0 0 0 0 46 159 421 681 717 696 695 645 566 451 415 494 526 622 576 543 652 791 864 905 800 538 316 208 164 139 69 35 0 0 0 0 325 1911 2402 1804 1285 922 606
18 6 3 0 0 8 57 264 511 611 633 593 505 408 275 179 234 346 419 340 471 499 617 726 753 609 364 148 65 55 49 21 4 0 0 0 196 2067 2600 1937 1489 1237 989
5 262 110 32 15 0 0 5 201 262 410 458 398 303 188 102 95 165 211 276 302 321 372 490 609 589 497 306 152 111 82 25 17 3 0 0 59 1614 2356 1828 1450 1449 1328
8 35 315 179 177 95 12 0 2 9 109 166 236 181 106 90 73 88 75 102 101 200 156 232 323 412 394 293 249 178 104 49 6 0 3 5 36 599 1531 1344 828 756 1025
0 0 35 347 268 316 324 154 139 8 0 0 30 41 38 15 21 0 13 42 51 6 47 58 97 147 234 239 195 87 21 10 9 0 0 11 2 558 1453 1438 856 626 538
22 90 66 95 345 418 547 493 301 246 72 0 6 34 19 68 14 5 0 6 41 48 14 0 1 13 25 54 56 50 0 0 0 18 111 61 0 157 1081 1741 1365 966 658
96 181 238 267 410 509 589 683 517 452 413 307 24 55 120 41 169 60 68 5 39 114 132 76 11 16 6 4 11 6 6 0 0 19 95 20 1 0 163 973 1526 1427 1168
65 137 277 435 425 764 831 626 589 574 642 793 860 733 530 469 372 251 151 146 90 139 153 148 127 84 23 0 11 21 22 29 4 2 19 25 0 0 2 54 477 1048 1203
1 13 90 366 371 285 515 821 1287 1054 822 800 949 1069 1071 970 840 725 537 352 301 237 254 247 296 238 99 17 36 73 95 71 51 42 60 66 87 90 85 100 150 222 591
0 0 0 24 258 225 289 419 656 1224 1449 1255 1145 1148 1304 1169 1135 1123 1014 972 724 563 356 349 306 281 206 98 64 70 132 152 80 85 97 124 131 158 202 265 315 286 381
0 0 0 0 12 209 123 22 107 542 1199 1462 1661 1370 1346 1353 1438 1297 1294 1265 1125 927 786 559 404 236 241 192 156 118 150 146 151 196 217 224 243 263 315 377 636 678 802
0 0 0 0 0 136 0 0 0 1 142 688 1290 1355 1741 1657 1592 1685 1569 1468 1362 1249 1129 939 697 386 185 241 171 163 185 182 182 169 239 273 294 374 579 938 1182 1126 1090
0 0 0 0 0 42 0 0 2 1 1 149 795 1434 1611 1269 1828 1901 1931 1774 1579 1478 1388 1243 1061 690 362 210 223 167 138 208 344 653 766 680 469 780 1275 1537 1642 1427 1369
0 0 0 0 0 0 0 0 0 0 0 0 65 318 847 1320 1688 1964 1934 1906 1756 1612 1506 1413 1264 1035 656 333 222 212 227 139 162 365 639 859 1215 1401 1522 1446 1549 1192 1007
0 0 0 0 0 0 0 0 0 0 0 0 0 33 546 1020 1183 1288 1805 1834 1832 1673 1542 1486 1388 1078 973 696 365 233 126 119 17 177 625 1013 1009 1303 1379 1269 748 494 317
0 0 0 0 0 0 0 0 0 0 0 0 0 0 159 643 1131 1191 1391 1291 1346 1412 1621 1544 1418 1301 1005 1018 524 299 292 192 186 469 307 430 842 844 600 193 15 19 5
0 0 0 0 0 0 0 0 0 0 0 0 0 0 65 240 381 657 829 1108 1023 1028 1253 1445 1425 1279 1132 878 676 594 240 274 213 222 268 223 197 109 97 78 52 114 75
CIN
0 -520 -350 -240 -189 -205 -240 -272 -263 -227 -167 -174 -173 -119 -98 -82 -80 -56 -37 -30 -44 -79 -144 -129 -106 -105 -94 -157 -187 -170 -111 -94 -77 -62 -69 -102 -92 -103 -148 -161 -94 -99 -4
0 -562 -380 -280 -217 -215 -236 -288 -281 -236 -170 -172 -148 -124 -106 -73 -64 -63 -41 -23 -31 -92 -118 -109 -99 -116 -120 -127 -151 -172 -201 -185 -139 -97 -98 -161 -156 -143 -192 -23 -27 -33 -20
0 -635 -405 -329 -261 -223 -218 -275 -286 -228 -151 -139 -151 -117 -93 -72 -57 -67 -60 -46 -48 -68 -101 -82 -91 -107 -132 -127 -152 -231 -267 -256 -201 -128 -106 -420 -407 -234 -215 -119 -52 -96 -115
0 -678 -510 -368 -298 -247 -237 -257 -278 -223 -159 -127 -147 -110 -79 -54 -46 -58 -61 -68 -53 -63 -124 -100 -90 -108 -118 -130 -222 -303 -370 -388 -332 -198 -180 -302 -302 -301 -302 -255 -209 -194 -197
0 0 -593 -420 -348 -269 -246 -260 -264 -223 -180 -164 -166 -121 -100 -74 -63 -49 -67 -83 -66 -68 -135 -124 -126 -106 -105 -183 -295 -370 -380 -327 -289 -110 -109 -154 -217 -198 -312 -291 -269 -215 -195
0 0 -602 -466 -389 -313 -256 -244 -254 -224 -205 -192 -189 -132 -86 -68 -55 -50 -84 -82 -51 -47 -69 -100 -82 -97 -164 -268 -214 -174 -250 -306 -381 -131 -154 -134 -139 -178 -233 -177 -284 -256 -230
0 0 -778 -538 -427 -346 -264 -247 -265 -252 -229 -211 -203 -158 -111 -73 -54 -69 -94 -95 -64 -48 -40 -42 -75 -156 -237 -304 -206 -196 -298 -389 -505 -141 -148 -208 -193 -127 -176 -163 -148 -192 -219
0 0 0 -630 -484 -367 -308 -286 -292 -284 -261 -244 -224 -195 -145 -112 -100 -94 -123 -115 -85 -60 -62 -70 -83 -139 -251 -352 -365 -314 -369 -484 -549 -151 -160 -229 -338 -104 -111 -126 -176 -220 -253
0 0 0 -188 -598 -461 -352 -320 -318 -303 -257 -242 -238 -231 -197 -176 -167 -153 -159 -159 -124 -106 -98 -96 -105 -116 -197 -325 -384 -414 -445 -558 -693 0 -220 -280 -95 -85 -101 -135 -203 -247 -231
0 0 0 0 -721 -620 -495 -389 -338 -321 -303 -287 -276 -268 -251 -220 -217 -201 -221 -223 -189 -151 -128 -115 -126 -187 -272 -352 -405 -457 -560 -663 -2 0 0 0 -293 -51 -38 -98 -131 -160 -198
-383 -238 -60 0 0 -543 -699 -560 -431 -377 -327 -310 -314 -322 -331 -361 -331 -287 -259 -295 -239 -227 -197 -167 -156 -167 -242 -430 -545 -593 -640 -736 -822 0 0 0 -387 -49 -28 -79 -121 -133 -138
-154 -511 -703 -139 -17 0 0 -316 -610 -521 -441 -392 -382 -396 -411 -464 -444 -385 -358 -311 -313 -305 -279 -235 -195 -182 -191 -289 -427 -478 -547 -661 -767 -778 0 0 -471 -61 -38 -86 -121 -126 -126
-65 -272 -476 -544 -160 -35 -24 0 -117 -104 -625 -544 -479 -456 -477 -493 -491 -465 -455 -439 -440 -377 -429 -349 -290 -239 -242 -302 -340 -397 -484 -575 -728 0 -255 -382 -533 -145 -61 -105 -156 -169 -151
0 0 -183 -342 -308 -248 -8 -17 -12 -1 0 0 -671 -573 -563 -581 -559 -1 -470 -457 -474 -558 -524 -526 -494 -429 -351 -343 -378 -496 -576 -581 -624 0 -48 -342 -35 -192 -80 -97 -150 -177 -192
-264 -208 -198 -113 -194 -198 -157 -12 -18 -13 -16 0 -466 -630 -603 -547 -622 -605 0 -522 -439 -369 -506 0 -349 -643 -607 -543 -542 -544 -141 0 0 -425 -239 -255 0 -356 -125 -76 -100 -130 -164
-364 -285 -252 -183 -129 -88 -93 -116 -43 -29 -34 -35 -387 -620 -532 -546 -477 -517 -474 -494 -437 -391 -348 -308 -339 -333 -594 -675 -702 -705 -665 0 0 -418 -262 -257 -101 0 -335 -114 -73 -90 -110
-179 -219 -320 -283 -251 -67 -62 -63 -55 -15 -25 -48 -73 -94 -148 -156 -151 -428 -451 -432 -432 -388 -332 -300 -255 -253 -296 -16 -564 -417 -299 -268 -270 -413 -293 -263 0 0 -273 -466 -202 -120 -108
-74 -154 -386 -311 -300 -187 -116 -43 -29 -32 -15 -12 -46 -85 -122 -144 -127 -113 -141 -254 -360 -303 -277 -249 -236 -215 -245 -295 -395 -324 -238 -208 -243 -239 -264 -253 -276 -225 -175 -203 -183 -288 -234
0 0 0 -332 -272 -263 -217 -181 -49 -45 -17 -26 -31 -21 -15 -70 -122 -112 -113 -131 -177 -210 -225 -191 -231 -229 -224 -250 -245 -323 -254 -240 -240 -246 -199 -198 -187 -181 -155 -136 -99 -123 -95
0 0 0 0 -42 -196 -237 -324 -45 -74 -39 -41 -4 -26 -8 -12 -9 -58 -79 -88 -91 -105 -159 -178 -183 -256 -242 -239 -286 -248 -203 -199 -228 -267 -248 -200 -142 -136 -117 -105 -68 -51 -39
0 0 0 0 0 -329 0 0 0 -1 -174 -67 -50 -48 -12 -13 -7 -5 -14 -48 -61 -81 -97 -103 -133 -155 -243 -206 -191 -184 -198 -227 -284 -276 -148 -146 -178 -136 -85 -68 -46 -38 -24
0 0 0 0 0 -227 0 0 0 0 -16 -136 -67 -21 -15 -27 -20 -5 -4 -9 -23 -37 -42 -62 -81 -130 -174 -237 -182 -123 -121 -169 -209 -209 -166 -112 -154 -205 -105 -43 -11 -15 -24
0 0 0 0 0 0 0 0 0 0 0 0 -104 -61 -107 -40 -18 -7 -11 -9 -7 -10 -28 -38 -45 -58 -99 -182 -183 -98 -40 -167 -181 -245 -152 -126 -101 -42 -34 -20 -16 -7 -48
0 0 0 0 0 0 0 0 0 0 0 0 0 -104 -114 -79 -55 -37 -20 -8 -2 -4 -11 -31 -30 -51 -33 -76 -128 -124 -119 -140 -190 -184 -138 -91 -77 -48 -43 -18 -41 -80 -91
0 0 0 0 0 0 0 0 0 0 0 0 0 0 -144 -54 -28 -19 -20 -10 -15 -20 -4 -9 -16 -23 -42 -22 -66 -118 -97 -106 -75 -28 -63 -67 -34 -48 -45 -40 -29 -36 -22
0 0 0 0 0 0 0 0 0 0 0 0 0 0 -122 -79 -55 -35 -29 -14 -11 -1 -9 -14 -16 -6 -14 -19 -15 -37 -114 -89 -75 -36 -36 -64 -41 -12 -4 -21 -61 -45 -70
Wind_Speed
nan 16 20 17 14 11 12 12 12 10 7 8 8 4 1 2 3 3 3 3 2 4 6 5 4 3 2 1 3 2 1 2 1 2 4 7 8 7 5 2 6 8 7
nan 15 20 19 16 15 15 13 10 9 9 9 7 8 7 4 3 4 5 4 4 5 7 7 5 5 5 4 4 4 5 4 2 2 5 8 11 9 7 15 12 10 10
nan nan 16 20 19 17 16 16 16 13 10 10 8 7 8 9 9 9 8 8 8 8 9 8 7 7 9 8 6 4 4 4 3 2 6 5 8 12 10 10 11 11 12
nan nan 14 20 21 19 17 15 15 17 16 12 12 10 9 10 11 13 13 12 12 14 14 13 12 11 10 10 9 6 6 6 5 3 1 2 4 12 11 10 10 11 12
nan nan 19 19 23 22 19 17 15 16 17 17 16 15 14 13 14 15 14 15 14 15 17 16 14 13 12 8 8 7 5 4 2 0 4 4 6 11 14 13 11 12 12
nan nan 24 22 21 23 23 22 19 17 17 18 18 18 16 15 16 15 15 13 11 11 13 14 13 12 10 10 5 3 1 3 2 2 2 3 11 18 17 16 13 14 14
nan nan nan 25 25 24 22 23 24 24 22 21 20 20 20 19 18 18 15 14 12 11 10 11 12 12 10 7 6 4 3 6 5 5 5 4 6 22 21 20 18 18 16
nan nan nan 30 26 24 25 23 23 25 27 27 25 24 24 23 22 21 20 16 14 11 11 11 12 11 9 7 6 5 2 1 nan 5 3 4 15 23 26 25 24 21 18
nan nan nan nan 29 27 24 24 25 26 27 26 26 27 27 26 26 25 22 20 18 16 13 12 11 9 7 6 6 6 4 nan nan nan 5 9 18 25 31 31 30 28 23
nan nan nan nan nan 27 27 27 27 27 27 29 30 28 26 26 26 25 24 21 21 19 17 15 13 12 12 10 9 8 nan nan nan nan nan nan 17 24 27 32 32 29 26
nan nan nan nan nan nan nan 29 29 29 30 29 28 30 31 28 26 26 25 25 23 22 21 19 17 16 15 14 nan nan nan nan nan nan nan nan 19 29 29 32 30 27 25
nan 33 30 nan nan nan nan nan 34 31 30 31 30 30 30 33 nan 29 28 25 24 24 24 24 22 21 20 23 23 18 nan nan nan nan nan nan nan 29 31 30 27 28 25
nan nan 45 40 39 nan nan nan nan nan 33 33 32 33 32 nan nan nan nan 32 29 28 30 29 30 29 28 28 28 29 27 nan nan nan nan nan nan 28 33 33 28 28 25
nan nan nan 50 46 41 35 34 36 nan nan nan nan nan nan nan nan nan nan nan nan nan nan nan nan 32 32 32 31 nan nan nan nan nan nan nan nan 32 34 33 31 29 25
nan nan nan nan 43 43 41 35 38 36 nan nan nan nan nan nan nan nan nan nan nan nan nan nan nan nan nan nan nan nan nan nan nan nan 36 nan nan 33 30 30 29 28 26
nan 52 48 50 38 37 35 34 35 38 37 37 nan nan 33 nan 33 nan nan nan nan 34 36 nan nan nan nan nan nan nan nan nan nan nan nan nan nan nan 28 25 25 23 23
nan 36 41 45 49 47 37 34 34 34 43 39 35 34 34 34 33 33 33 32 nan 34 32 33 35 nan nan nan nan nan nan nan nan nan nan nan nan nan nan nan 22 21 18
nan nan nan 42 50 43 37 36 35 32 37 38 37 36 32 31 34 34 34 33 34 35 35 36 36 34 nan nan nan nan nan nan nan nan nan nan nan nan nan 22 21 19 16
nan nan nan nan 46 45 41 41 41 32 38 37 39 39 34 34 30 34 34 32 35 36 34 33 33 33 34 nan nan nan 31 32 nan nan nan 25 26 28 32 32 26 23 21
nan nan nan nan nan 42 45 nan 46 45 42 40 40 33 42 43 38 33 33 33 37 38 36 35 32 35 32 30 32 32 34 34 37 35 29 35 25 26 31 34 37 32 24
nan nan nan nan nan 41 nan nan nan nan 47 48 45 43 43 47 45 39 35 33 33 34 33 36 35 32 36 35 42 38 37 32 31 35 21 36 38 34 35 37 37 39 38
nan nan nan nan nan nan nan nan nan nan nan 48 49 51 46 43 47 47 41 37 38 38 35 35 37 38 35 38 41 49 38 26 31 27 34 32 33 36 42 40 52 45 44
nan nan nan nan nan nan nan nan nan nan nan nan nan 52 53 52 48 47 46 44 44 42 39 40 41 41 41 42 46 55 44 30 34 31 38 38 41 41 41 38 46 59 57
nan nan nan nan nan nan nan nan nan nan nan nan nan nan 59 64 64 52 50 50 51 55 43 40 44 44 45 43 54 50 49 42 nan 38 40 41 41 42 45 49 50 53 59
nan nan nan nan nan nan nan nan nan nan nan nan nan nan 60 64 71 77 76 65 49 53 58 46 43 47 47 49 50 55 46 44 52 46 44 40 42 43 49 50 nan nan nan
nan nan nan nan nan nan nan nan nan nan nan nan nan nan nan 59 67 72 74 74 73 62 50 48 45 47 49 51 53 49 50 51 48 46 43 43 47 48 nan nan nan 61 nan
Wind_Direction
nan 352 339 337 340 342 340 344 354 354 341 336 345 338 212 190 217 205 189 168 209 284 304 322 314 328 333 336 223 202 150 109 357 320 309 313 310 299 281 4 346 315 290
nan 349 338 328 328 331 331 334 340 337 335 338 338 337 327 303 277 278 276 257 249 277 291 297 295 282 282 260 239 208 210 207 235 325 315 311 312 304 278 288 299 310 304
nan nan 336 324 319 325 329 333 332 325 323 325 331 328 323 322 317 306 292 289 293 289 288 287 289 290 288 276 261 254 254 269 270 293 315 302 315 313 303 302 313 321 329
nan nan 333 326 317 320 324 329 330 322 318 317 315 319 323 321 315 310 300 295 294 297 300 299 296 293 288 284 286 277 274 275 273 300 39 315 358 324 318 316 316 320 321
nan nan 334 329 319 318 316 316 318 319 316 313 311 312 314 316 317 311 301 300 301 303 307 308 307 300 292 292 302 299 292 276 249 360 325 16 332 328 324 321 318 317 312
nan nan 328 327 321 318 316 315 311 308 307 305 303 304 302 303 306 306 304 301 301 309 315 315 307 299 298 305 308 305 135 130 210 173 328 34 356 334 332 322 329 324 315
nan nan nan 328 324 319 314 310 308 307 306 299 296 294 294 295 294 296 297 293 293 301 308 313 314 317 323 333 345 5 85 125 169 172 171 242 343 329 329 327 315 313 314
nan nan nan 326 323 320 316 307 299 297 300 300 296 291 291 291 292 294 297 289 287 286 293 302 307 313 321 337 353 5 15 121 nan 207 221 271 334 331 326 324 318 314 310
nan nan nan nan 319 316 310 306 301 296 292 291 292 293 291 289 290 296 297 294 291 289 289 292 292 288 294 310 315 311 295 nan nan nan 247 271 313 334 329 326 320 315 313
nan nan nan nan nan 307 306 310 306 301 301 298 294 290 288 289 288 291 293 293 291 291 287 288 285 284 288 294 297 293 nan nan nan nan nan nan 318 334 328 321 317 313 311
nan nan nan nan nan nan nan 304 307 309 308 302 299 294 286 276 276 278 281 286 290 290 290 289 286 280 280 284 nan nan nan nan nan nan nan nan 313 329 328 323 319 315 312
nan 306 305 nan nan nan nan nan 303 301 299 301 299 291 283 279 nan 281 283 291 291 292 289 286 282 281 276 264 265 276 nan nan nan nan nan nan nan 327 328 324 319 317 317
nan nan 315 310 307 nan nan nan nan nan 295 297 302 299 292 nan nan nan nan 275 276 286 275 279 277 273 275 271 271 273 279 nan nan nan nan nan nan 324 330 323 321 319 318
nan nan nan 309 307 309 301 296 294 nan nan nan nan nan nan nan nan nan nan nan nan nan nan nan nan 279 279 279 278 nan nan nan nan nan nan nan nan 318 325 321 317 318 316
nan nan nan nan 308 308 307 296 292 292 nan nan nan nan nan nan nan nan nan nan nan nan nan nan nan nan nan nan nan nan nan nan nan nan 285 nan nan 310 316 316 316 316 315
nan 283 283 276 286 290 294 295 289 284 283 281 nan nan 288 nan 283 nan nan nan nan 281 282 nan nan nan nan nan nan nan nan nan nan nan nan nan nan nan 309 311 316 317 314
nan 279 270 274 271 266 273 275 266 273 283 281 280 284 288 289 288 284 282 281 nan 280 284 280 284 nan nan nan nan nan nan nan nan nan nan nan nan nan nan nan 309 307 313
nan nan nan 258 263 265 269 265 265 262 270 274 277 278 287 290 288 284 280 284 283 281 280 282 282 285 nan nan nan nan nan nan nan nan nan nan nan nan nan 296 303 307 304
nan nan nan nan 258 265 260 260 256 264 264 257 269 273 274 280 283 278 276 274 279 282 282 283 281 288 287 nan nan nan 276 278 nan nan nan 284 272 272 272 277 291 292 284
nan nan nan nan nan 265 268 nan 261 256 252 264 276 271 276 274 283 284 281 283 275 275 277 282 291 285 282 285 283 279 281 284 292 312 311 315 285 277 262 268 266 263 275
nan nan nan nan nan 259 nan nan nan nan 257 254 251 256 266 274 276 283 281 282 281 278 287 289 285 288 285 282 275 278 276 291 310 308 323 310 327 320 287 263 258 257 261
nan nan nan nan nan nan nan nan nan nan nan 260 256 247 253 264 277 279 280 280 283 277 279 282 285 288 285 288 290 275 274 279 284 304 292 297 297 298 292 284 254 254 252
nan nan nan nan nan nan nan nan nan nan nan nan nan 255 248 244 257 269 276 274 276 272 275 276 277 283 283 284 291 281 276 285 276 278 286 286 286 285 289 285 289 262 243
nan nan nan nan nan nan nan nan nan nan nan nan nan nan 251 250 243 245 263 272 275 271 265 269 273 277 277 279 273 281 279 275 nan 269 267 277 278 286 283 285 291 282 260
nan nan nan nan nan nan nan nan nan nan nan nan nan nan 251 249 251 251 243 243 260 265 268 263 263 272 270 273 276 273 278 280 273 273 272 274 277 281 280 281 nan nan nan
nan nan nan nan nan nan nan nan nan nan nan nan nan nan nan 254 252 250 250 250 247 253 273 263 260 266 268 269 273 272 274 275 280 279 281 281 282 282 nan nan nan 276 nan